DW5686 Weather Reports


Display with metric or nautical units.
time (UTC)temp
F
wind
direction
speed
MPH
gust
MPH
rain 1hr
in
rain 24hr
in
rain mn
in
humidity
%
barometer
mb
20260904172004 94 251 2.0 6.0 0.00 0.00 0.00 55 1016.5
20260904171503 94 166 2.0 7.0 0.00 0.00 0.00 52 1016.5
20260904171025 94 253 2.0 7.0 0.00 0.00 0.00 55 1016.5
20260904170525 93 237 2.0 7.0 0.00 0.00 0.00 56 1016.6
20260904170024 93 229 3.0 9.0 0.00 0.00 0.00 55 1016.6
20260904165503 93 170 5.0 9.0 0.00 0.00 0.00 55 1016.6
20260904165003 94 217 3.0 7.0 0.00 0.00 0.00 56 1016.8
20260904164523 94 19 2.0 6.0 0.00 0.00 0.00 51 1016.9
20260904164003 93 192 3.0 7.0 0.00 0.00 0.00 55 1016.9
20260904163504 92 245 3.0 7.0 0.00 0.00 0.00 58 1017.0
20260904163003 92 210 3.0 8.0 0.00 0.00 0.00 58 1017.0
20260904162503 91 185 4.0 8.0 0.00 0.00 0.00 58 1017.1
20260904162003 90 179 3.0 9.0 0.00 0.00 0.00 60 1017.2
20260904161503 90 199 4.0 9.0 0.00 0.00 0.00 60 1017.3
20260904161003 90 219 3.0 7.0 0.00 0.00 0.00 59 1017.5
20260904160504 90 200 4.0 8.0 0.00 0.00 0.00 59 1017.5
20260904160003 91 216 4.0 8.0 0.00 0.00 0.00 59 1017.5
20260904155503 91 241 2.0 7.0 0.00 0.00 0.00 60 1017.5
20260904155003 91 246 2.0 11.0 0.00 0.00 0.00 60 1017.6
20260904154503 90 201 4.0 12.0 0.00 0.00 0.00 60 1017.6
20260904154024 90 205 5.0 12.0 0.00 0.00 0.00 59 1017.5
20260904153504 90 162 2.0 7.0 0.00 0.00 0.00 62 1017.6
20260904153003 89 128 2.0 7.0 0.00 0.00 0.00 62 1017.7
20260904152503 89 187 2.0 5.0 0.00 0.00 0.00 63 1017.6
20260904152004 89 229 3.0 7.0 0.00 0.00 0.00 61 1017.7
20260904151524 89 197 2.0 7.0 0.00 0.00 0.00 64 1017.7
20260904151003 88 87 1.0 7.0 0.00 0.00 0.00 67 1017.7
20260904150504 88 212 2.0 9.0 0.00 0.00 0.00 65 1017.7
20260904150004 87 242 3.0 10.0 0.00 0.00 0.00 67 1017.6
20260904145503 87 228 3.0 10.0 0.00 0.00 0.00 67 1017.6
20260904145003 87 223 3.0 9.0 0.00 0.00 0.00 67 1017.7
20260904144503 87 223 4.0 9.0 0.00 0.00 0.00 67 1017.6
20260904144024 86 203 3.0 8.0 0.00 0.00 0.00 68 1017.7
20260904143524 85 228 4.0 11.0 0.00 0.00 0.00 68 1017.6
20260904143004 85 211 5.0 11.0 0.00 0.00 0.00 69 1017.6
20260904142504 84 220 6.0 12.0 0.00 0.00 0.00 70 1017.6
20260904142004 84 223 4.0 13.0 0.00 0.00 0.00 70 1017.5
20260904141504 85 210 8.0 13.0 0.00 0.00 0.00 69 1017.4
20260904141003 85 205 2.0 9.0 0.00 0.00 0.00 70 1017.4
20260904140525 84 202 4.0 9.0 0.00 0.00 0.00 70 1017.5
20260904140003 84 225 2.0 12.0 0.00 0.00 0.00 72 1017.4
20260904135503 84 221 5.0 12.0 0.00 0.00 0.00 72 1017.4
20260904135003 83 234 2.0 12.0 0.00 0.00 0.00 72 1017.5
20260904134504 83 185 4.0 12.0 0.00 0.00 0.00 72 1017.5
20260904134004 83 178 1.0 11.0 0.00 0.00 0.00 76 1017.4
20260904133503 82 225 4.0 11.0 0.00 0.00 0.00 75 1017.5
20260904133004 82 182 3.0 7.0 0.00 0.00 0.00 75 1017.4
20260904132504 82 232 2.0 12.0 0.00 0.00 0.00 77 1017.4
20260904132003 81 226 4.0 12.0 0.00 0.00 0.00 76 1017.4
20260904131503 81 181 4.0 9.0 0.00 0.00 0.00 78 1017.4
20260904131024 81 184 2.0 9.0 0.00 0.00 0.00 78 1017.4
20260904130503 80 156 3.0 11.0 0.00 0.00 0.00 79 1017.4
20260904130004 80 222 5.0 12.0 0.00 0.00 0.00 81 1017.4
20260904125503 79 213 5.0 12.0 0.00 0.00 0.00 81 1017.5
20260904125004 79 223 4.0 9.0 0.00 0.00 0.00 82 1017.5
20260904124504 78 210 4.0 9.0 0.00 0.00 0.00 82 1017.5
20260904124003 78 237 3.0 8.0 0.00 0.00 0.00 83 1017.6
20260904123503 78 212 3.0 10.0 0.00 0.00 0.00 83 1017.6
20260904123003 77 210 4.0 10.0 0.00 0.00 0.00 83 1017.7
20260904122503 77 215 3.0 5.0 0.00 0.00 0.00 84 1017.7
20260904122003 77 171 1.0 5.0 0.00 0.00 0.00 86 1017.8
20260904121504 76 167 2.0 6.0 0.00 0.00 0.00 86 1017.6
20260904121003 76 152 2.0 6.0 0.00 0.00 0.00 86 1017.7
20260904120504 76 220 3.0 6.0 0.00 0.00 0.00 86 1017.7
20260904120004 76 210 1.0 3.0 0.00 0.00 0.00 87 1017.7
20260904115525 75 210 1.0 6.0 0.00 0.00 0.00 87 1017.5
20260904115003 75 211 1.0 6.0 0.00 0.00 0.00 88 1017.4
20260904114524 75 178 1.0 5.0 0.00 0.00 0.00 88 1017.4
20260904114003 75 0 0.0 5.0 0.00 0.00 0.00 88 1017.4
20260904113503 74 180 2.0 6.0 0.00 0.00 0.00 89 1017.3
20260904113004 74 156 2.0 6.0 0.00 0.00 0.00 89 1017.3
20260904112503 74 164 3.0 6.0 0.00 0.00 0.00 89 1017.3
20260904112003 74 0 0.0 2.0 0.00 0.00 0.00 89 1017.3
20260904111504 74 165 1.0 2.0 0.00 0.00 0.00 89 1017.2
20260904111004 74 165 0.0 2.0 0.00 0.00 0.00 89 1017.2
20260904110525 74 165 1.0 4.0 0.00 0.00 0.00 89 1017.0
20260904110025 74 165 1.0 4.0 0.00 0.00 0.00 88 1017.0
20260904105524 74 211 0.0 4.0 0.00 0.00 0.00 88 1016.9
20260904105003 74 211 0.0 4.0 0.00 0.00 0.00 88 1016.9
20260904104524 74 243 1.0 2.0 0.00 0.00 0.00 88 1016.8
20260904104003 74 143 1.0 4.0 0.00 0.00 0.00 88 1016.8
20260904103504 74 171 2.0 4.0 0.00 0.00 0.00 88 1016.6
20260904103025 74 254 1.0 6.0 0.00 0.00 0.00 88 1016.8
20260904102503 74 254 1.0 6.0 0.00 0.00 0.00 88 1016.7
20260904102003 74 210 0.0 3.0 0.00 0.00 0.00 88 1016.7
20260904101503 74 210 2.0 3.0 0.00 0.00 0.00 88 1016.8
20260904101004 74 185 1.0 3.0 0.00 0.00 0.00 88 1016.7
20260904100503 74 156 1.0 2.0 0.00 0.00 0.00 88 1016.8
20260904100003 74 0 0.0 2.0 0.00 0.00 0.00 88 1016.6
20260904095503 74 156 0.0 2.0 0.00 0.00 0.00 88 1016.7
20260904095024 74 156 1.0 2.0 0.00 0.00 0.00 87 1016.7
20260904094503 75 0 0.0 2.0 0.00 0.00 0.00 87 1016.6
20260904094003 75 156 1.0 3.0 0.00 0.00 0.00 87 1016.6
20260904093504 75 0 0.0 5.0 0.00 0.00 0.00 87 1016.5
20260904093003 75 156 2.0 6.0 0.00 0.00 0.00 86 1016.6
20260904092504 75 155 3.0 6.0 0.00 0.00 0.00 87 1016.5
20260904092003 75 181 2.0 4.0 0.00 0.00 0.00 87 1016.5
20260904091503 75 181 2.0 3.0 0.00 0.00 0.00 87 1016.5
20260904091025 75 181 2.0 2.0 0.00 0.00 0.00 87 1016.5
20260904090504 75 181 0.0 2.0 0.00 0.00 0.00 87 1016.4
20260904090003 75 181 0.0 4.0 0.00 0.00 0.00 87 1016.5
20260904085503 75 0 0.0 4.0 0.00 0.00 0.00 87 1016.4
20260904085003 75 184 2.0 5.0 0.00 0.00 0.00 86 1016.4
20260904084503 75 176 2.0 5.0 0.00 0.00 0.00 86 1016.4
20260904084003 75 200 1.0 3.0 0.00 0.00 0.00 86 1016.3
20260904083504 75 200 1.0 2.0 0.00 0.00 0.00 86 1016.3
20260904083025 75 253 0.0 1.0 0.00 0.00 0.00 86 1016.4
20260904082504 75 253 0.0 2.0 0.00 0.00 0.00 86 1016.3
20260904082025 75 253 0.0 2.0 0.00 0.00 0.00 86 1016.3
20260904081524 76 253 0.0 3.0 0.00 0.00 0.00 86 1016.3
20260904081025 76 253 1.0 3.0 0.00 0.00 0.00 84 1016.4
20260904080504 76 253 0.0 2.0 0.00 0.00 0.00 84 1016.4
20260904080004 76 253 0.0 2.0 0.00 0.00 0.00 84 1016.3
20260904075503 76 253 0.0 2.0 0.00 0.00 0.00 84 1016.4
20260904075003 76 253 0.0 2.0 0.00 0.00 0.00 84 1016.4
20260904074504 76 253 0.0 2.0 0.00 0.00 0.00 83 1016.3
20260904074024 76 269 0.0 2.0 0.00 0.00 0.00 83 1016.4
20260904073525 76 269 0.0 2.0 0.00 0.00 0.00 83 1016.4
20260904073004 76 0 0.0 4.0 0.00 0.00 0.00 83 1016.4
20260904072504 77 269 0.0 4.0 0.00 0.00 0.00 83 1016.4
20260904072003 77 0 0.0 2.0 0.00 0.00 0.00 82 1016.4
20260904071504 77 153 1.0 5.0 0.00 0.00 0.00 82 1016.5
20260904071023 77 153 2.0 5.0 0.00 0.00 0.00 82 1016.4
20260904070502 77 153 2.0 3.0 0.00 0.00 0.00 82 1016.3
20260904070002 77 209 2.0 3.0 0.00 0.00 0.00 82 1016.4
20260904065503 77 209 1.0 3.0 0.00 0.00 0.00 82 1016.4
20260904065002 77 0 0.0 1.0 0.00 0.00 0.00 81 1016.6
20260904064524 77 0 0.0 2.0 0.00 0.00 0.00 81 1016.7
20260904064023 77 209 0.0 3.0 0.00 0.00 0.00 81 1016.6
20260904063502 78 209 1.0 3.0 0.00 0.00 0.00 81 1016.7
20260904063002 78 209 0.0 3.0 0.00 0.00 0.00 79 1016.6
20260904062502 78 209 1.0 3.0 0.00 0.00 0.00 79 1016.8
20260904062002 78 209 0.0 5.0 0.00 0.00 0.00 79 1016.8
20260904061502 78 209 1.0 5.0 0.00 0.00 0.00 78 1016.8
20260904061003 78 188 1.0 5.0 0.00 0.00 0.00 78 1016.9
20260904060502 79 186 1.0 2.0 0.00 0.00 0.00 78 1016.9
20260904060023 79 186 1.0 3.0 0.00 0.00 0.00 77 1016.9
20260904055503 79 186 0.0 6.0 0.00 0.00 0.00 77 1016.9
20260904055002 79 195 2.0 7.0 0.00 0.00 0.00 76 1017.0
20260904054502 79 150 3.0 7.0 0.00 0.00 0.00 76 1017.0
20260904054002 80 153 2.0 6.0 0.00 0.00 0.00 76 1017.1
20260904053503 80 134 3.0 6.0 0.00 0.00 0.00 76 1017.0
20260904053024 80 222 1.0 4.0 0.00 0.00 0.00 76 1017.0
20260904052502 80 169 2.0 4.0 0.00 0.00 0.00 76 1017.1
20260904052002 80 195 2.0 4.0 0.00 0.00 0.00 76 1017.1
20260904051502 80 168 2.0 4.0 0.00 0.00 0.00 76 1017.2
20260904051002 80 129 2.0 5.0 0.00 0.00 0.00 76 1017.2
20260904050503 80 125 1.0 6.0 0.00 0.00 0.00 76 1017.2
20260904050023 80 157 1.0 6.0 0.00 0.00 0.00 76 1017.2
20260904045503 81 168 2.0 6.0 0.00 0.00 0.00 75 1017.2
20260904045002 81 125 2.0 5.0 0.00 0.00 0.00 75 1017.3
20260904044502 81 225 2.0 7.0 0.00 0.00 0.00 75 1017.3
20260904044002 81 175 2.0 7.0 0.00 0.00 0.00 74 1017.3
20260904043503 81 146 3.0 7.0 0.00 0.00 0.00 74 1017.2
20260904043003 81 153 2.0 7.0 0.00 0.00 0.00 75 1017.3
20260904042502 81 155 2.0 7.0 0.00 0.00 0.00 76 1017.3
20260904042002 81 166 2.0 7.0 0.00 0.00 0.00 77 1017.2
20260904041524 81 137 2.0 6.0 0.00 0.00 0.00 76 1017.2
20260904041003 81 131 2.0 6.0 0.00 0.00 0.00 76 1017.1
20260904040503 82 127 1.0 6.0 0.00 0.00 0.00 75 1017.2
20260904040002 82 152 3.0 7.0 0.00 0.00 0.00 74 1017.1
20260904035502 82 167 4.0 7.0 0.00 0.00 0.00 74 1017.2
20260904035002 82 166 2.0 7.0 0.00 0.00 0.00 74 1017.2
20260904034502 82 159 3.0 7.0 0.00 0.00 0.00 74 1017.2
20260904034002 82 156 4.0 7.0 0.00 0.00 0.00 75 1017.2
20260904033502 81 160 4.0 7.0 0.00 0.00 0.00 76 1017.3
20260904033002 81 169 2.0 6.0 0.00 0.00 0.00 77 1017.4
20260904032503 81 156 3.0 5.0 0.00 0.00 0.00 77 1017.4
20260904032003 81 150 2.0 7.0 0.00 0.00 0.00 77 1017.3
20260904031523 81 158 3.0 7.0 0.00 0.00 0.00 77 1017.3
20260904031002 81 164 2.0 5.0 0.00 0.00 0.00 77 1017.3
20260904030502 81 165 2.0 5.0 0.00 0.00 0.00 77 1017.3
20260904030002 81 165 0.0 2.0 0.00 0.00 0.00 77 1017.3
20260904025503 81 0 0.0 1.0 0.00 0.00 0.00 77 1017.4
20260904025003 81 0 0.0 0.0 0.00 0.00 0.00 76 1017.5
20260904024503 82 0 0.0 2.0 0.00 0.00 0.00 76 1017.4
20260904024002 82 0 0.0 2.0 0.00 0.00 0.00 75 1017.5
20260904023502 82 165 0.0 2.0 0.00 0.00 0.00 75 1017.5
20260904023002 82 165 1.0 2.0 0.00 0.00 0.00 74 1017.4
20260904022524 82 165 0.0 2.0 0.00 0.00 0.00 74 1017.4
20260904022003 82 165 0.0 2.0 0.00 0.00 0.00 74 1017.5
20260904021502 82 165 2.0 2.0 0.00 0.00 0.00 72 1017.5
20260904021003 82 165 1.0 2.0 0.00 0.00 0.00 72 1017.6
20260904020504 82 165 1.0 2.0 0.00 0.00 0.00 72 1017.5
20260904020002 82 165 1.0 2.0 0.00 0.00 0.00 71 1017.3
20260904015502 82 0 0.0 0.0 0.00 0.00 0.00 71 1017.2
20260904015002 82 0 0.0 0.0 0.00 0.00 0.00 71 1017.2
20260904014502 83 0 0.0 2.0 0.00 0.00 0.00 71 1017.2
20260904014002 83 0 0.0 2.0 0.00 0.00 0.00 70 1017.1
20260904013502 83 165 1.0 2.0 0.00 0.00 0.00 69 1017.1
20260904013002 83 0 0.0 0.0 0.00 0.00 0.00 69 1017.0
20260904012502 83 0 0.0 0.0 0.00 0.00 0.00 69 1016.9
20260904012024 84 0 0.0 1.0 0.00 0.00 0.00 68 1016.8
20260904011503 84 0 0.0 2.0 0.00 0.00 0.00 68 1016.6
20260904011002 84 0 0.0 2.0 0.00 0.00 0.00 67 1016.5
20260904010502 84 165 1.0 2.0 0.00 0.00 0.00 65 1016.4
20260904010024 85 165 0.0 2.0 0.00 0.00 0.00 65 1016.4
20260904005524 85 165 0.0 1.0 0.00 0.00 0.00 64 1016.3
20260904005002 85 0 0.0 0.0 0.00 0.00 0.00 64 1016.3
20260904004523 85 0 0.0 2.0 0.00 0.00 0.00 64 1016.1
20260904004003 85 165 0.0 2.0 0.00 0.00 0.00 64 1016.1
20260904003503 85 165 0.0 2.0 0.00 0.00 0.00 64 1016.1
20260904003002 85 0 0.0 0.0 0.00 0.00 0.00 64 1016.1
20260904002502 85 0 0.0 1.0 0.00 0.00 0.00 64 1016.1
20260904002003 86 0 0.0 1.0 0.00 0.00 0.00 63 1015.9
20260904001502 86 0 0.0 1.0 0.00 0.00 0.00 62 1015.8
20260904001004 86 165 0.0 1.0 0.00 0.00 0.00 61 1015.7
20260904000502 86 165 0.0 1.0 0.00 0.00 0.00 61 1015.6
20260904000003 86 0 0.0 2.0 0.00 0.00 0.00 61 1015.5
20260903235502 87 0 0.0 2.0 0.00 0.00 0.00 61 1015.4
20260903235003 87 165 0.0 3.0 0.00 0.00 0.00 60 1015.5
20260903234502 88 165 1.0 4.0 0.00 0.00 0.00 59 1015.5
20260903234002 89 165 2.0 6.0 0.00 0.00 0.00 58 1015.4
20260903233524 89 163 3.0 6.0 0.00 0.00 0.00 56 1015.3
20260903233023 89 134 2.0 5.0 0.00 0.00 0.00 57 1015.3
20260903232503 90 151 2.0 7.0 0.00 0.00 0.00 55 1015.3
20260903232002 91 102 2.0 7.0 0.00 0.00 0.00 53 1015.3
20260903231504 91 153 2.0 7.0 0.00 0.00 0.00 52 1015.3
20260903231003 92 173 4.0 7.0 0.00 0.00 0.00 50 1015.3
20260903230503 92 162 3.0 8.0 0.00 0.00 0.00 50 1015.3
20260903230003 92 180 3.0 8.0 0.00 0.00 0.00 50 1015.2
20260903225503 92 165 3.0 8.0 0.00 0.00 0.00 51 1015.3
20260903225002 92 160 3.0 8.0 0.00 0.00 0.00 50 1015.3
20260903224503 93 196 3.0 9.0 0.00 0.00 0.00 49 1015.3
20260903224003 93 167 3.0 9.0 0.00 0.00 0.00 50 1015.3
20260903223525 93 163 5.0 9.0 0.00 0.00 0.00 50 1015.4
20260903223002 93 183 5.0 11.0 0.00 0.00 0.00 49 1015.4
20260903222524 93 174 4.0 11.0 0.00 0.00 0.00 49 1015.4
20260903222003 93 164 6.0 11.0 0.00 0.00 0.00 49 1015.4
20260903221502 93 156 6.0 11.0 0.00 0.00 0.00 49 1015.5
20260903221003 94 151 2.0 12.0 0.00 0.00 0.00 49 1015.4
20260903220524 94 185 4.0 12.0 0.00 0.00 0.00 48 1015.4
20260903220002 94 164 5.0 9.0 0.00 0.00 0.00 49 1015.4
20260903215525 94 158 5.0 9.0 0.00 0.00 0.00 49 1015.5
20260903215025 94 175 6.0 14.0 0.00 0.00 0.00 49 1015.5
20260903214504 94 146 6.0 14.0 0.00 0.00 0.00 49 1015.5
20260903214002 94 167 9.0 14.0 0.00 0.00 0.00 49 1015.4
20260903213524 94 153 4.0 7.0 0.00 0.00 0.00 48 1015.4
20260903213003 94 176 2.0 4.0 0.00 0.00 0.00 47 1015.5
20260903212525 94 167 2.0 4.0 0.00 0.00 0.00 46 1015.5
20260903212004 94 188 0.0 2.0 0.00 0.00 0.00 47 1015.5
20260903211523 95 191 1.0 2.0 0.00 0.00 0.00 47 1015.5
20260903211003 95 191 1.0 4.0 0.00 0.00 0.00 44 1015.5
20260903210504 96 94 1.0 6.0 0.00 0.00 0.00 45 1015.4
20260903210003 96 36 2.0 7.0 0.00 0.00 0.00 43 1015.5
20260903205502 97 30 3.0 7.0 0.00 0.00 0.00 42 1015.5
20260903205003 97 42 2.0 8.0 0.00 0.00 0.00 42 1015.5
20260903204504 98 154 3.0 9.0 0.00 0.00 0.00 44 1015.5
20260903204003 98 183 5.0 9.0 0.00 0.00 0.00 42 1015.6
20260903203524 97 193 2.0 7.0 0.00 0.00 0.00 43 1015.6
20260903203025 96 13 1.0 7.0 0.00 0.00 0.00 45 1015.6
20260903202525 95 200 1.0 7.0 0.00 0.00 0.00 47 1015.7
20260903202004 95 189 4.0 7.0 0.00 0.00 0.00 44 1015.9
20260903201503 96 167 1.0 6.0 0.00 0.00 0.00 43 1016.0
20260903201003 97 165 3.0 6.0 0.00 0.00 0.00 42 1016.0
20260903200503 95 174 2.0 7.0 0.00 0.00 0.00 48 1016.0
20260903200003 94 131 3.0 7.0 0.00 0.00 0.00 46 1016.1
20260903195504 95 158 1.0 5.0 0.00 0.00 0.00 45 1016.1
20260903195004 96 158 1.0 6.0 0.00 0.00 0.00 43 1016.2
20260903194503 98 150 1.0 7.0 0.00 0.00 0.00 41 1016.2
20260903194002 99 139 3.0 12.0 0.00 0.00 0.00 41 1016.4
20260903193504 100 155 2.0 12.0 0.00 0.00 0.00 40 1016.5
20260903193003 100 176 7.0 12.0 0.00 0.00 0.00 42 1016.4
20260903192502 99 8 2.0 5.0 0.00 0.00 0.00 40 1016.4
20260903192003 99 10 2.0 3.0 0.00 0.00 0.00 41 1016.5
20260903191524 99 212 1.0 8.0 0.00 0.00 0.00 42 1016.6
20260903191003 98 178 2.0 8.0 0.00 0.00 0.00 41 1016.5
20260903190503 97 97 3.0 6.0 0.00 0.00 0.00 45 1016.6
20260903190003 96 4 2.0 7.0 0.00 0.00 0.00 43 1016.7
20260903185504 97 16 2.0 7.0 0.00 0.00 0.00 43 1016.9
20260903185024 98 168 4.0 7.0 0.00 0.00 0.00 42 1016.9
20260903184504 97 161 4.0 7.0 0.00 0.00 0.00 43 1016.9
20260903184003 97 156 4.0 10.0 0.00 0.00 0.00 44 1017.0
20260903183504 97 124 3.0 10.0 0.00 0.00 0.00 45 1016.9
20260903183003 96 29 2.0 9.0 0.00 0.00 0.00 46 1016.9
20260903182503 96 37 7.0 9.0 0.00 0.00 0.00 42 1017.0
20260903182004 96 170 3.0 7.0 0.00 0.00 0.00 44 1017.1
20260903181503 95 138 2.0 5.0 0.00 0.00 0.00 45 1017.1
20260903181002 96 191 2.0 8.0 0.00 0.00 0.00 44 1017.2
20260903180525 97 48 3.0 8.0 0.00 0.00 0.00 45 1017.1
20260903180003 97 342 2.0 10.0 0.00 0.00 0.00 42 1017.1
20260903175503 98 19 6.0 10.0 0.00 0.00 0.00 43 1017.1
20260903175004 98 7 4.0 11.0 0.00 0.00 0.00 45 1017.2
20260903174503 96 13 4.0 11.0 0.00 0.00 0.00 46 1017.2
20260903174003 96 74 2.0 7.0 0.00 0.00 0.00 42 1017.2
20260903173525 97 30 2.0 7.0 0.00 0.00 0.00 42 1017.3
20260903173004 96 24 4.0 7.0 0.00 0.00 0.00 45 1017.4
20260903172503 97 20 2.0 10.0 0.00 0.00 0.00 45 1017.4